Location: Bay Harbour
(38.2612°N, 75.2555°W)
Time: 17:25:59
(UTC+00:00)

Cosmos 1076 Rocket - Pass Details

Date: 29 October 2020
Orbit: 589 x 613 km, 82.5° (Epoch: 23 November)

Event Time Altitude Azimuth Distance (km) Brightness Sun altitude
Rises 23:19:26 0° 360° (N) 2,829 6.9 -15.3°
Reaches altitude 10° 23:21:44 10° 7° (N) 1,925 6.0 -15.7°
Maximum altitude 23:25:47 43° 79° (E) 835 3.7 -16.5°
Drops below altitude 10° 23:29:50 10° 152° (SSE) 1,920 5.8 -17.3°
Sets 23:32:07 0° 159° (SSE) 2,821 6.8 -17.8°
